Torna al catalogo

THORAD AGENA D DEB

AttivoLEO
NORAD 4720·DEBRIS·🇺🇸 United States

Lanciato Apr 8, 1970 da Vandenberg Space Force Base

Loading…

Prossimi Passaggi (prossime 24 ore)

TLE

AggiornatoSource: Space-Track

Epoca: Sep 14, 2026, 08:42 UTC

1 04720U 70025CE  26257.36280205  .00000526  00000-0  34718-3 0  9994
2 04720 100.0543 227.3503 0084842  65.8077 295.1927 14.05183981862965

Traccia THORAD AGENA D DEB in tempo reale con AllMySat

Download on the App Store